This demonstration page uses our WeatherBlox Daily Observations layout. Learn more.

Left ArrowRight Arrow

34.74481, -87.66753

Hourly Observations for March 7, 2022

Temp ( °F °C ) Dew Point ( °F °C ) Humidity (%) Winds ( mph kmh ) Pressure ( in mb ) Visibility ( mi km ) Precip ( " mm )
12:53 am 00:53 Partly Cloudy 69 20.6 60 15.6 73 73 SSW 15 24 29.94 1014 10 16 0.00 0.00
1:03 am 01:03 Mostly Cloudy 69 20.6 60 15.6 73 73 SSW 15 24 29.95 1014 10 16 0.00 0.00
1:53 am 01:53 Cloudy 70 21.1 61 16.1 73 73 SSW 21 33 29.94 1014 10 16 0.00 0.00
2:49 am 02:49 Mostly Cloudy 70 21 61 16 73 73 SSW 13 20 29.92 1013 10 16 0.00 0.00
2:53 am 02:53 Mostly Cloudy 70 21.1 61 16.1 73 73 SSW 16 26 29.91 1013 10 16 0.00 0.00
3:53 am 03:53 Mostly Cloudy 70 21.1 62 16.7 76 76 SSW 17 28 29.88 1012 10 16 0.00 0.00
4:22 am 04:22 Mostly Clear 70 21.1 62 16.7 76 76 SSW 18 30 29.88 1012 10 16 0.00 0.00
4:53 am 04:53 Partly Cloudy 70 21.1 62 16.7 76 76 SSW 22 35 29.87 1012 10 16 0.00 0.00
5:08 am 05:08 Mostly Cloudy 70 21.1 62 16.7 76 76 SSW 22 35 29.88 1012 10 16 0.00 0.00
5:38 am 05:38 Mostly Cloudy 70 21.1 62 16.7 76 76 SSW 16 26 29.88 1012 10 16 0.00 0.00
5:53 am 05:53 Cloudy 71 21.7 62 16.7 73 73 S 16 26 29.87 1011 10 16 0.00 0.00
6:07 am 06:07 Cloudy 71 21.7 62 16.7 73 73 SSW 17 28 29.88 1012 10 16 0.00 0.00
6:34 am 06:34 Mostly Cloudy 71 21.7 62 16.7 73 73 SSW 22 35 29.86 1011 10 16 0.00 0.00
6:53 am 06:53 Cloudy 71 21.7 63 17.2 76 76 SSW 17 28 29.87 1012 10 16 0.00 0.00
7:53 am 07:53 Cloudy with Rain 69 20.6 63 17.2 81 81 SW 17 28 29.88 1012 4 6 0.02 0.51
8:06 am 08:06 Cloudy with Rain 69 20.6 64 17.8 84 84 SSW 17 28 29.89 1012 2 3 0.05 1.27
8:13 am 08:13 Cloudy with Heavy Rain 68 20 64 17.8 87 87 W 28 44 29.93 1013 1 1 0.20 5.08
8:23 am 08:23 Cloudy with Heavy Rain 65 18.3 63 17.2 93 93 WNW 21 33 29.95 1014 1 1 0.39 9.91
8:33 am 08:33 Cloudy with Heavy Rain 62 16.7 60 15.6 93 93 NW 15 24 29.94 1014 1 2 0.50 12.70
8:45 am 08:45 Cloudy with Rain 61 16.1 57 13.9 87 87 NW 14 22 29.97 1015 2 3 0.57 14.48
8:53 am 08:53 Cloudy with Heavy Rain 60 15.6 57 13.9 90 90 WNW 14 22 29.96 1015 2 2 0.63 16.00
9:05 am 09:05 Cloudy with Rain 60 15.6 57 13.9 90 90 WNW 10 17 29.97 1015 3 5 0.03 0.76
9:53 am 09:53 Cloudy with Light Rain 61 16.1 57 13.9 87 87 W 12 19 29.99 1016 10 16 0.04 1.02
10:53 am 10:53 Cloudy with Light Rain 60 15.6 54 12.2 80 80 WNW 12 19 30.01 1016 10 16 0.01 0.25
11:18 am 11:18 Cloudy 61 16.1 55 12.8 81 81 NW 10 17 30.03 1017 10 16 0.00 0.00
11:53 am 11:53 Cloudy with Light Rain 58 14.4 53 11.7 84 84 WNW 18 30 30.06 1018 9 14 0.00 0.00
12:38 pm 12:38 Cloudy 56 13.3 51 10.6 84 84 WNW 15 24 30.09 1019 10 16 0.00 0.00
12:48 pm 12:48 Cloudy 55 13 50 10 82 82 WNW 12 19 30.07 1018 10 16 0.00 0.00
12:53 pm 12:53 Cloudy 55 12.8 50 10 83 83 NW 9 15 30.05 1018 10 16 0.00 0.00
1:06 pm 13:06 Cloudy 55 12.8 49 9.4 80 80 WNW 6 9 30.06 1018 10 16 0.00 0.00
1:18 pm 13:18 Cloudy 55 12.8 49 9.4 80 80 NW 12 19 30.08 1019 10 16 0.00 0.00
1:53 pm 13:53 Cloudy 54 12.2 48 8.9 80 80 NW 12 19 30.06 1018 10 16 0.00 0.00
2:07 pm 14:07 Cloudy 53 11.7 48 8.9 83 83 NW 12 19 30.07 1018 10 16 0.00 0.00
2:53 pm 14:53 Cloudy 52 11.1 47 8.3 83 83 WNW 16 26 30.09 1019 10 16 0.00 0.00
3:13 pm 15:13 Cloudy 52 11.1 46 7.8 80 80 NW 14 22 30.12 1020 10 16 0.00 0.00
3:53 pm 15:53 Cloudy 51 10.6 44 6.7 77 77 NNW 9 15 30.11 1020 10 16 0.00 0.00
4:53 pm 16:53 Cloudy 50 10 43 6.1 77 77 N 9 15 30.10 1019 10 16 0.00 0.00
5:53 pm 17:53 Cloudy 49 9.4 43 6.1 80 80 NNW 10 17 30.14 1021 10 16 0.00 0.00
6:53 pm 18:53 Cloudy 48 8.9 40 4.4 74 74 N 6 9 30.15 1021 10 16 0.00 0.00
7:08 pm 19:08 Cloudy 48 8.9 40 4.4 74 74 NNW 8 13 30.18 1022 10 16 0.00 0.00
7:53 pm 19:53 Cloudy 48 8.9 39 3.9 71 71 NNW 10 17 30.16 1022 10 16 0.00 0.00
8:53 pm 20:53 Cloudy 46 7.8 37 2.8 71 71 N 9 15 30.19 1022 10 16 0.00 0.00
9:40 pm 21:40 Cloudy 45 7.2 36 2.2 71 71 N 9 15 30.21 1023 10 16 0.00 0.00
9:50 pm 21:50 Cloudy 45 7 36 2 71 71 N 7 11 30.20 1023 10 16 0.00 0.00
9:53 pm 21:53 Cloudy 45 7.2 36 2.2 71 71 N 10 17 30.19 1022 10 16 0.00 0.00
10:53 pm 22:53 Cloudy 44 6.7 36 2.2 73 73 N 9 15 30.19 1023 10 16 0.00 0.00
11:53 pm 23:53 Cloudy 44 6.7 35 1.7 71 71 N 7 11 30.18 1022 10 16 0.00 0.00

Powered by AerisWeather